Simultaneous Nadir Overpasses (SNOs) Predictions

Prediction of SNOs between AQUA and METOP-B Satellite Orbit:

Table of predicted SNOs for the next 14.0 days since TLE Epoch: 11/4/2017
Index Date (AQUA) Time (AQUA) Lat,Lon (AQUA) SZA (AQUA ) Date (METOP-B) Time (METOP-B) Lat,Lon (METOP-B) SZA (METOP-B ) Distance(km) Time Diff (sec)
1 11/06/2017 10:52:33 73.78, 11.12 89.80 11/06/2017 10:52:02 73.79, 11.14 89.82 1.38 31
2 11/06/2017 11:42:00 -73.84, 178.64 90.14 11/06/2017 11:42:42 -73.86, 178.63 90.11 3.07 42
3 11/09/2017 06:26:47 73.79, 77.54 90.63 11/09/2017 06:26:23 73.81, 77.58 90.65 2.11 24
4 11/09/2017 07:16:14 -73.84,-114.93 89.31 11/09/2017 07:17:04 -73.83,-115.04 89.32 3.75 50
5 11/12/2017 01:11:25 -73.28, -22.58 89.12 11/12/2017 01:10:17 -73.22, -24.70 89.16 68.36 68
6 11/12/2017 02:01:02 73.81, 143.93 91.44 11/12/2017 02:00:45 73.82, 144.02 91.44 2.59 17
7 11/12/2017 02:50:29 -73.85, -48.51 88.52 11/12/2017 02:51:26 -73.84, -48.60 88.53 2.87 57
8 11/14/2017 20:45:45 -73.57, 43.27 88.09 11/14/2017 20:44:33 -73.53, 42.41 88.12 27.46 72
9 11/14/2017 21:35:16 73.79,-149.57 92.15 11/14/2017 21:35:08 73.78,-149.67 92.14 3.52 8
10 11/14/2017 22:24:44 -73.88, 17.88 87.75 11/14/2017 22:25:48 -73.85, 17.84 87.78 2.87 64
11 11/17/2017 16:20:02 -73.76, 109.31 87.19 11/17/2017 16:18:50 -73.73, 109.30 87.21 2.62 72
12 11/17/2017 17:09:30 73.83, -83.21 92.89 11/17/2017 17:09:28 73.83, -83.13 92.90 2.35 2




NCC Satellite Simultaneous Nadir Overpasses (SNOs) Prediction Service
